Wind_Speed
31 27 26 25 25 24 23 22 24 25 23 23 22 22 22 22 21 21 18 22 21 22 20 21 13 11 9 6 5 1 7 10 14 17 13 13 10 10 12 13 13 14 18
28 24 23 22 24 23 21 21 21 20 20 21 22 21 21 20 20 19 20 20 20 19 19 15 12 11 9 6 4 3 8 10 14 6 16 14 12 14 15 12 11 12 18
25 23 21 24 23 19 19 18 17 19 20 20 19 18 19 19 17 18 20 19 19 20 18 15 14 12 10 8 6 7 8 11 11 9 10 11 11 12 12 12 11 12 17
22 21 23 19 17 17 15 16 18 20 21 21 21 21 21 18 17 17 18 17 20 21 16 13 13 12 12 10 10 8 8 12 12 9 11 13 14 12 11 12 13 12 13
21 21 17 14 14 14 14 17 20 20 20 21 21 20 18 16 16 16 17 18 19 17 10 12 14 10 12 12 11 10 9 9 8 15 14 15 14 13 13 13 11 12 13
19 16 14 13 13 12 15 18 15 15 13 12 12 12 13 14 13 15 17 17 14 8 4 10 13 10 13 14 12 8 12 11 9 13 14 17 15 14 13 12 14 12 12
15 13 12 12 11 14 15 12 10 9 9 11 9 10 11 11 12 15 16 16 12 5 4 8 11 10 11 14 14 10 12 13 14 12 14 16 15 15 15 16 12 13 15
11 11 12 11 13 12 10 8 9 9 10 10 7 9 9 10 12 14 14 7 4 6 7 9 10 13 12 13 15 12 12 14 14 15 15 14 15 14 13 14 15 14 12
11 11 11 11 12 10 10 9 10 11 11 10 6 8 9 9 11 9 8 3 5 7 6 9 10 15 15 13 15 15 15 15 15 12 14 15 16 16 16 17 13 14 13
12 10 10 10 10 9 9 11 12 12 13 8 7 9 8 10 8 8 5 4 6 5 9 10 12 13 15 11 13 14 15 16 15 16 17 18 18 17 16 14 16 16 15
9 9 7 9 10 10 12 11 9 9 10 8 8 8 6 5 6 6 5 5 6 8 9 11 12 13 13 12 13 14 15 16 18 19 19 18 18 16 13 16 16 17 20
8 7 6 7 8 10 8 6 7 9 10 8 7 4 2 1 4 5 7 4 4 8 11 14 15 16 15 14 14 15 16 16 16 16 16 17 16 13 13 17 17 12 17
7 6 6 7 8 6 5 5 6 9 9 7 6 1 3 1 13 13 11 7 9 9 10 14 16 16 16 15 14 15 18 18 19 19 17 15 19 17 14 12 14 13 12
6 5 5 5 3 5 6 6 8 10 8 7 6 4 5 17 13 11 11 10 8 8 8 12 13 13 13 13 14 18 20 16 19 18 19 23 21 17 13 13 14 17 18
5 4 3 2 4 5 5 10 12 11 8 8 5 4 8 15 10 8 11 11 11 11 11 13 16 15 15 15 14 15 18 18 19 19 18 21 17 15 18 20 21 23 20
5 5 4 4 5 6 7 10 10 7 9 8 8 6 4 17 10 10 8 9 11 11 11 14 13 14 15 13 11 12 15 19 17 15 16 17 22 27 25 23 22 18 15
7 7 5 4 6 7 9 11 11 12 13 10 8 6 6 14 7 11 9 10 11 11 10 13 15 13 12 12 12 11 12 14 11 12 16 19 20 20 22 21 19 16 13
11 9 6 5 7 7 12 13 11 14 8 7 8 9 9 8 7 10 10 9 10 10 10 9 10 12 14 15 16 16 15 15 15 15 15 17 19 20 20 20 18 15 12
12 9 9 7 8 9 11 13 13 9 7 7 9 12 11 8 10 11 10 9 10 10 10 10 11 10 9 10 11 12 15 16 18 19 19 19 19 20 19 17 15 13 11
13 11 10 12 8 10 12 11 11 11 10 10 11 11 11 11 10 10 9 9 8 8 7 8 9 11 12 12 11 12 13 14 14 14 13 12 13 15 15 16 15 14 13
18 15 12 12 11 12 12 12 12 12 11 12 12 12 11 9 9 9 8 8 9 9 9 11 11 12 13 13 13 13 13 13 13 13 14 15 13 14 15 16 15 14 15
23 19 15 14 12 13 13 13 14 15 15 14 13 13 13 12 10 11 10 8 8 8 8 11 12 11 10 11 11 10 9 10 10 10 10 10 10 11 12 13 15 16 15
24 25 20 16 15 15 17 17 15 15 15 15 14 14 13 11 9 7 6 5 4 4 5 3 3 3 3 4 4 5 6 6 7 7 8 9 10 12 13 14 14 13 14
22 21 20 20 17 12 11 11 12 12 11 11 11 9 7 8 9 8 9 8 6 5 4 3 3 3 5 7 8 9 10 10 11 12 13 13 15 16 17 19 20 22 24
25 22 23 23 23 21 20 18 17 17 18 17 16 16 16 15 16 15 13 11 10 10 10 9 10 11 12 13 13 14 16 17 19 20 22 23 24 25 26 27 29 29 30
28 25 24 25 27 26 25 23 23 21 19 19 19 19 18 18 17 17 16 17 17 17 17 18 18 19 20 20 21 22 22 23 24 25 26 26 27 28 29 30 32 33 35
Wind_Direction
249 250 250 257 262 268 272 274 277 276 277 280 281 281 285 291 286 287 287 293 290 293 289 302 277 277 262 259 293 179 168 158 165 161 184 180 186 197 179 182 187 179 176
244 245 250 258 266 266 267 272 273 277 280 283 281 282 286 285 284 281 287 288 289 291 297 297 279 257 239 225 230 154 168 179 182 232 176 180 182 183 168 177 176 174 177
241 245 255 259 261 260 262 266 272 280 286 286 284 280 274 277 279 280 290 284 291 294 284 288 270 234 222 202 200 185 171 188 203 194 158 168 156 152 161 170 172 177 183
236 247 254 255 249 257 263 273 283 285 283 282 278 270 272 275 272 280 282 289 300 299 266 278 250 221 215 202 201 198 188 201 210 194 163 166 161 162 164 175 178 166 177
241 249 245 242 252 256 267 283 289 285 281 276 277 275 271 264 270 278 280 298 295 301 274 263 226 211 213 208 196 190 193 191 188 178 184 172 170 167 163 163 170 180 176
239 240 236 245 248 262 278 287 282 277 278 275 276 270 263 266 280 283 297 297 307 297 232 208 204 210 204 205 204 201 186 187 191 182 182 179 177 170 160 164 176 174 174
231 227 239 244 252 266 278 270 266 270 288 286 277 268 264 275 273 293 292 294 288 264 217 192 184 190 203 204 194 188 188 185 180 168 168 173 178 172 167 167 173 178 190
223 233 235 242 256 275 269 257 261 272 292 294 268 265 271 267 283 293 300 292 252 212 215 194 196 197 197 191 191 188 175 176 176 171 173 177 184 179 178 187 192 187 173
224 228 234 245 268 272 271 271 267 273 283 276 255 266 266 273 289 291 312 280 202 199 201 196 196 195 186 192 183 180 176 175 175 178 176 180 182 184 190 195 193 182 179
221 226 240 256 274 265 274 276 268 262 262 250 243 253 264 282 284 303 280 232 235 238 209 197 202 189 187 192 192 185 179 176 177 179 175 177 183 185 191 199 191 188 187
221 229 250 272 261 273 278 270 259 247 238 218 230 254 261 275 283 272 256 254 250 218 202 186 182 179 166 166 174 174 174 176 179 182 186 186 184 181 192 200 190 192 180
226 241 245 264 279 281 268 250 244 233 205 198 217 214 243 281 291 247 228 207 177 174 185 181 176 169 159 159 155 157 162 166 174 181 178 174 170 165 177 188 180 185 188
229 241 257 272 282 266 244 238 233 193 192 190 177 160 207 164 106 102 104 125 146 137 158 168 172 170 170 172 170 169 162 160 162 160 156 156 161 147 133 158 187 191 186
213 232 258 266 250 254 226 202 183 178 184 176 163 113 132 122 94 87 93 96 120 155 145 155 158 161 165 177 170 167 168 166 172 179 174 166 168 174 170 168 168 158 155
195 216 218 240 237 226 210 186 173 169 169 164 165 144 140 157 143 111 91 95 107 140 137 143 149 150 160 168 172 179 185 178 178 176 174 179 183 186 162 152 153 153 155
194 199 174 192 205 196 169 163 156 160 154 141 157 147 140 156 161 139 120 114 114 112 128 134 145 155 157 160 165 172 177 180 184 188 189 185 168 159 158 160 157 154 161
185 171 180 184 182 175 170 165 158 152 142 144 151 154 150 159 149 157 151 146 139 132 126 133 143 153 153 144 137 142 152 167 176 169 174 175 167 158 152 156 158 161 167
183 166 174 177 160 165 170 167 162 167 149 151 159 154 155 153 155 166 174 163 155 148 137 136 146 153 151 148 141 139 139 147 154 157 159 156 158 161 167 173 176 179 184
175 163 157 158 150 151 156 172 174 169 195 167 145 147 147 134 141 155 161 155 155 154 154 152 156 167 170 176 170 169 167 168 166 164 167 174 179 181 187 192 195 199 211
174 154 159 134 139 150 154 166 184 188 204 174 149 149 151 148 152 152 145 144 149 156 159 164 166 166 168 170 168 172 173 175 179 181 184 195 199 205 210 217 223 228 240
174 165 157 142 140 135 135 151 156 164 167 165 154 149 151 154 155 149 151 165 177 179 175 172 175 177 175 180 183 189 193 198 205 210 212 215 216 223 229 232 238 245 255
179 171 167 159 150 149 146 145 143 146 153 155 153 151 153 153 159 163 158 167 174 174 193 182 179 186 195 194 201 210 221 228 231 231 233 237 237 236 236 236 243 253 263
188 178 178 175 168 182 178 174 165 156 154 153 156 160 163 160 157 157 153 153 164 189 209 194 211 233 272 257 235 231 232 239 242 242 247 248 251 251 252 253 257 263 271
198 199 193 188 184 189 201 178 180 172 168 163 171 156 150 157 154 164 162 162 166 162 151 133 144 189 214 227 230 236 241 243 246 248 249 251 252 252 253 253 254 259 264
197 192 194 193 200 199 200 195 200 198 179 186 190 193 194 198 198 204 207 213 215 225 230 226 228 229 231 228 230 233 236 239 242 246 249 252 253 254 255 258 263 268 272
204 206 206 207 209 210 216 217 223 228 224 211 218 225 230 231 236 240 245 248 249 249 251 255 256 257 259 259 258 258 259 261 262 262 262 262 263 266 267 266 267 269 271
Height
5723 5725 5727 5729 5730 5731 5732 5732 5733 5733 5733 5733 5732 5731 5731 5730 5729 5728 5727 5725 5723 5721 5719 5718 5716 5717 5716 5717 5716 5714 5714 5715 5716 5720 5724 5727 5731 5734 5738 5741 5745 5749 5752
5716 5719 5722 5723 5724 5725 5726 5727 5728 5728 5728 5727 5726 5725 5725 5724 5724 5723 5722 5721 5719 5716 5714 5714 5713 5714 5715 5715 5715 5715 5716 5718 5720 5721 5720 5727 5730 5731 5736 5742 5745 5746 5752
5711 5714 5716 5717 5719 5720 5722 5723 5723 5723 5722 5721 5721 5720 5720 5720 5719 5718 5717 5715 5714 5713 5711 5710 5710 5711 5712 5713 5714 5715 5717 5719 5722 5724 5724 5728 5731 5734 5737 5740 5744 5749 5753
5706 5709 5711 5713 5714 5716 5717 5718 5718 5717 5716 5716 5715 5715 5714 5715 5714 5713 5711 5711 5709 5706 5706 5706 5706 5708 5709 5711 5713 5716 5718 5721 5723 5726 5728 5730 5732 5735 5738 5742 5746 5750 5753
5702 5704 5706 5708 5710 5712 5713 5713 5713 5712 5711 5711 5710 5709 5710 5709 5709 5708 5707 5706 5705 5702 5701 5702 5703 5706 5707 5710 5712 5715 5717 5720 5723 5725 5728 5731 5734 5736 5740 5743 5746 5750 5754
5697 5699 5702 5703 5706 5708 5709 5708 5708 5708 5707 5706 5704 5705 5705 5705 5704 5703 5702 5702 5701 5699 5698 5700 5701 5704 5706 5708 5710 5713 5717 5719 5722 5725 5727 5730 5734 5737 5740 5743 5747 5751 5755
5693 5695 5698 5701 5703 5704 5704 5704 5704 5704 5703 5702 5702 5702 5702 5702 5701 5700 5699 5698 5697 5698 5697 5698 5700 5703 5705 5706 5710 5713 5715 5717 5721 5724 5727 5731 5735 5738 5741 5745 5748 5752 5755
5689 5693 5696 5698 5700 5700 5700 5701 5701 5701 5701 5700 5700 5699 5700 5699 5699 5697 5696 5695 5695 5696 5697 5698 5700 5702 5704 5706 5709 5712 5714 5717 5720 5724 5727 5731 5735 5738 5742 5745 5747 5750 5755
5687 5691 5693 5695 5696 5696 5697 5698 5698 5698 5698 5698 5698 5697 5697 5697 5696 5695 5694 5695 5695 5695 5696 5698 5699 5701 5704 5706 5709 5710 5713 5716 5720 5724 5727 5731 5734 5738 5741 5744 5747 5751 5754
5686 5689 5690 5692 5692 5694 5695 5695 5695 5696 5696 5696 5696 5696 5695 5694 5693 5693 5693 5694 5694 5695 5695 5697 5699 5701 5703 5706 5708 5710 5713 5716 5720 5724 5727 5730 5733 5737 5741 5744 5748 5751 5754
5684 5686 5687 5688 5690 5691 5692 5691 5692 5693 5694 5695 5694 5694 5694 5693 5693 5692 5692 5693 5693 5693 5695 5697 5699 5701 5704 5706 5708 5711 5714 5717 5720 5723 5726 5730 5733 5736 5739 5742 5746 5750 5754
5681 5683 5686 5687 5688 5688 5688 5689 5689 5691 5692 5693 5694 5694 5694 5693 5692 5691 5691 5692 5692 5693 5694 5697 5700 5703 5705 5708 5710 5713 5716 5719 5722 5725 5728 5732 5735 5737 5738 5742 5747 5751 5754
5680 5682 5684 5685 5685 5686 5687 5687 5688 5690 5692 5693 5694 5694 5694 5694 5693 5692 5692 5693 5694 5695 5696 5698 5700 5704 5707 5710 5712 5715 5718 5720 5724 5727 5730 5733 5736 5738 5740 5744 5748 5751 5754
5680 5681 5682 5683 5684 5684 5685 5686 5687 5690 5692 5693 5694 5695 5695 5697 5695 5696 5695 5695 5695 5697 5698 5700 5703 5705 5709 5712 5714 5717 5720 5723 5725 5728 5731 5734 5736 5738 5741 5745 5749 5752 5756
5679 5681 5682 5682 5683 5683 5684 5684 5687 5690 5692 5694 5695 5697 5697 5699 5699 5699 5699 5699 5699 5699 5701 5702 5704 5707 5709 5712 5716 5718 5721 5723 5725 5728 5731 5734 5737 5739 5743 5746 5751 5754 5758
5678 5680 5681 5682 5682 5683 5684 5685 5688 5690 5693 5695 5697 5698 5698 5700 5702 5702 5703 5703 5703 5703 5704 5705 5708 5710 5712 5714 5717 5719 5722 5725 5727 5730 5733 5735 5737 5740 5744 5749 5754 5757 5760
5677 5679 5680 5681 5682 5683 5685 5687 5690 5693 5695 5697 5698 5699 5700 5702 5704 5705 5705 5706 5707 5707 5709 5710 5712 5714 5715 5717 5718 5721 5723 5726 5729 5731 5734 5738 5742 5745 5748 5752 5755 5758 5760
5677 5679 5681 5681 5682 5684 5686 5689 5692 5694 5697 5698 5699 5700 5702 5704 5705 5707 5708 5709 5710 5711 5712 5714 5716 5718 5719 5721 5722 5723 5726 5729 5732 5735 5738 5742 5745 5747 5750 5753 5755 5757 5760
5677 5679 5681 5680 5683 5685 5687 5689 5693 5696 5698 5699 5700 5701 5703 5705 5707 5708 5710 5711 5713 5715 5716 5717 5718 5720 5722 5724 5726 5728 5730 5732 5735 5737 5740 5743 5745 5747 5750 5753 5755 5757 5759
5676 5680 5682 5682 5684 5686 5688 5691 5694 5697 5698 5700 5700 5702 5705 5707 5709 5711 5713 5714 5716 5718 5719 5721 5722 5723 5724 5727 5729 5731 5733 5735 5737 5739 5741 5744 5746 5747 5749 5752 5754 5755 5756
5678 5680 5683 5685 5687 5688 5690 5693 5695 5697 5699 5702 5703 5704 5707 5709 5711 5712 5714 5716 5718 5719 5721 5722 5724 5726 5727 5729 5730 5732 5734 5736 5738 5739 5741 5743 5744 5746 5748 5750 5751 5752 5753
5677 5681 5684 5687 5689 5691 5692 5694 5696 5699 5700 5703 5705 5707 5708 5709 5712 5713 5715 5717 5718 5720 5721 5722 5724 5726 5727 5730 5731 5733 5736 5737 5739 5740 5741 5742 5743 5744 5745 5746 5747 5748 5748
5678 5680 5683 5686 5690 5691 5692 5694 5698 5701 5702 5704 5707 5708 5708 5711 5713 5716 5717 5719 5720 5722 5724 5725 5727 5728 5731 5732 5733 5734 5734 5736 5737 5738 5739 5739 5740 5741 5742 5742 5743 5743 5743
5678 5682 5686 5688 5690 5694 5697 5699 5700 5704 5706 5707 5708 5711 5714 5714 5715 5716 5719 5720 5722 5723 5724 5725 5726 5727 5729 5729 5730 5730 5731 5732 5733 5733 5734 5734 5735 5735 5736 5736 5736 5735 5735
5675 5678 5682 5686 5689 5691 5694 5697 5699 5700 5704 5705 5707 5708 5710 5711 5713 5714 5717 5718 5720 5722 5723 5724 5724 5724 5725 5725 5725 5725 5726 5726 5727 5727 5728 5728 5728 5729 5729 5729 5729 5729 5728
5672 5676 5679 5683 5686 5689 5692 5695 5697 5700 5703 5706 5707 5708 5709 5711 5712 5713 5714 5716 5717 5719 5720 5720 5722 5722 5722 5722 5722 5722 5722 5723 5723 5723 5722 5722 5722 5723 5723 5722 5720 5720 5718